[[{"header":{"parameterUnit":"m.s-1","parameterCategory":1,"la1":30.2992,"la2":30.254,"lo1":-89.0895,"lo2":-89.0443,"dy":0.0025,"dx":0.0025,"nx":19,"ny":19,"refTime":"2026-03-23T21:00:00:Z","depth":0,"parameterNumber":2,"parameterNumberName":"U-component_of_WINDS"},"data":[0,0,0,2.4997,2.4997,2.5002,2.5002,2.5048,2.5048,0,0,0,0,0,0,0,0,0,0,0,2.5019,2.502,2.4997,2.4998,2.5002,2.5002,2.5048,2.5048,0,0,0,0,0,0,0,0,0,0,0,2.5018,2.5019,2.5021,2.4998,2.5002,2.5002,2.5047,2.503,0,0,0,0,0,0,0,0,0,0,2.5019,2.5061,2.5019,2.5021,2.4998,2.5002,2.5002,2.5028,2.5031,2.5062,0,2.5095,0,2.5073,2.5054,2.5054,0,0,0,2.4981,2.5059,2.5039,2.5021,2.4998,2.5002,2.4995,2.5029,2.5033,2.5066,2.5096,2.5096,2.5074,2.5055,2.5055,2.5291,2.5292,0,0,2.498,2.5032,2.5038,2.5043,2.5043,2.4995,2.4996,2.5031,2.5067,2.5096,2.5097,2.5074,2.5055,2.5056,2.5289,2.5291,0,0,0,2.4991,2.5033,2.5011,2.5042,2.5039,2.4996,2.4996,2.5065,2.5054,2.5097,2.5075,2.5056,2.5057,2.5287,2.529,2.5433,0,0,0,2.499,2.5039,2.5012,2.5044,2.504,2.5052,2.5031,2.5051,2.5054,2.5075,2.5056,2.5057,2.5284,2.5288,2.5425,2.5493,0,0,0,2.501,2.5041,2.5049,2.5046,2.505,2.505,2.504,2.5051,2.5041,2.5054,2.5058,2.5283,2.5287,2.5417,2.548,2.557,0,0,0,2.5047,2.5177,2.5053,2.5189,2.5051,2.5139,2.5039,2.5103,2.5131,2.5056,2.5285,2.5289,2.5415,2.5472,2.5563,2.5656,2.5699,0,0,2.524,2.5202,2.5279,2.5167,2.5291,2.5134,2.5279,2.5257,2.5211,2.5267,2.5272,2.5428,2.5479,2.5569,2.5925,2.596,0,0,0,2.5358,2.5413,2.5435,2.5464,2.545,2.5443,2.5392,2.5384,2.5429,2.525,2.5483,2.5512,2.5562,2.5604,2.5634,2.5674,2.5311,2.531,2.531,2.5705,2.5639,2.5761,2.5697,2.5727,2.5674,2.5692,2.5672,2.5597,2.5654,2.567,2.5894,2.5945,2.5967,2.601,2.5713,2.5714,2.5714,2.5715,2.5982,2.605,2.5948,2.603,2.596,2.6029,2.5983,2.5928,2.5983,2.5876,2.5917,2.5806,2.6007,2.6041,2.5725,2.5723,2.5722,2.5721,2.572,2.6202,2.6224,2.6211,2.6247,2.6282,2.6212,2.627,2.6204,2.6143,2.6183,2.6194,2.6191,2.6181,2.6193,2.6194,2.6195,2.6195,2.6196,2.6196,2.6436,2.6417,2.6472,2.6469,2.6479,2.6485,2.6434,2.6443,2.6436,2.6384,2.6384,2.6305,2.6039,2.5974,2.6208,2.6206,2.6204,2.6203,2.6203,2.6741,2.6661,2.6747,2.6758,2.6749,2.6789,2.6705,2.6729,2.6727,2.6758,2.667,2.6484,2.6441,2.6417,2.6362,2.6683,2.6683,2.6683,2.6683,2.6927,2.6898,2.6972,2.6993,2.7007,2.694,2.7041,2.7004,2.6952,2.6948,2.6892,2.6814,2.6792,2.6762,2.673,2.6678,2.7072,2.7073,2.7073,2.7111,2.7081,2.7179,2.7127,2.7115,2.7107,2.72,2.723,2.7156,2.7088,2.6943,2.6926,2.68,2.6762,2.6691,2.6643,2.6546,0,0]},{"header":{"parameterUnit":"m.s-1","parameterCategory":1,"la1":30.2992,"la2":30.254,"lo1":-89.0895,"lo2":-89.0443,"dy":0.0025,"dx":0.0025,"nx":19,"ny":19,"refTime":"2026-03-23T21:00:00:Z","depth":0,"parameterNumber":3,"parameterNumberName":"V-component_of_WINDS"},"data":[0,0,0,1.139,1.1396,1.1687,1.1688,1.2055,1.2058,0,0,0,0,0,0,0,0,0,0,0,1.1301,1.1303,1.1389,1.1397,1.1687,1.1688,1.2054,1.2058,0,0,0,0,0,0,0,0,0,0,0,1.13,1.1303,1.1306,1.1398,1.1687,1.1689,1.2054,1.1836,0,0,0,0,0,0,0,0,0,0,1.1554,1.147,1.1302,1.1306,1.1399,1.1687,1.1689,1.1826,1.185,1.1921,0,1.1984,0,1.2027,1.2082,1.2084,0,0,0,1.1399,1.145,1.1531,1.1306,1.1402,1.1686,1.1557,1.1839,1.1866,1.1953,1.1989,1.2003,1.2033,1.2085,1.2087,1.249,1.2492,0,0,1.1383,1.1352,1.1512,1.1548,1.1503,1.1547,1.1566,1.1856,1.1894,1.1991,1.2012,1.2039,1.2087,1.209,1.2489,1.2491,0,0,0,1.1335,1.1341,1.1415,1.1533,1.1586,1.1556,1.1577,1.1881,1.1907,1.2016,1.2043,1.2089,1.2094,1.2487,1.249,1.2548,0,0,0,1.1326,1.1313,1.1407,1.1392,1.158,1.1737,1.1595,1.1887,1.1921,1.2041,1.2089,1.2097,1.2485,1.2488,1.2542,1.2581,0,0,0,1.1283,1.1308,1.1349,1.1389,1.1513,1.1733,1.1776,1.1895,1.1938,1.2084,1.2098,1.2484,1.2488,1.2537,1.2573,1.2678,0,0,0,1.1229,1.1398,1.135,1.1549,1.1511,1.1767,1.1775,1.1967,1.21,1.2091,1.2485,1.2489,1.2536,1.2568,1.2673,1.2762,1.2796,0,0,1.1425,1.1421,1.154,1.1505,1.1762,1.1725,1.199,1.2141,1.2183,1.2385,1.2396,1.2544,1.2572,1.2677,1.2997,1.3024,0,0,0,1.1592,1.1677,1.1752,1.1876,1.1994,1.2099,1.2212,1.2267,1.244,1.2281,1.2611,1.2629,1.2692,1.2736,1.2759,1.2815,1.2508,1.2508,1.2507,1.1827,1.187,1.2071,1.2149,1.2269,1.2382,1.2483,1.2577,1.2587,1.2664,1.2725,1.2914,1.2964,1.2982,1.3039,1.2775,1.2775,1.2775,1.2776,1.2119,1.2247,1.2253,1.245,1.2494,1.266,1.2775,1.2775,1.2936,1.2872,1.2929,1.2857,1.301,1.3062,1.278,1.278,1.2779,1.2778,1.2778,1.2278,1.2347,1.241,1.2593,1.2728,1.2801,1.2954,1.2989,1.3023,1.308,1.3147,1.3147,1.315,1.3109,1.311,1.311,1.3111,1.3111,1.3112,1.2419,1.2489,1.2614,1.2751,1.2834,1.2948,1.3061,1.3144,1.3245,1.3258,1.3259,1.3261,1.3016,1.2954,1.3122,1.312,1.3119,1.3118,1.3117,1.2701,1.2642,1.2835,1.2918,1.3081,1.3213,1.3254,1.3419,1.3493,1.3567,1.3555,1.3368,1.3367,1.3349,1.3298,1.3545,1.3545,1.3545,1.3545,1.2836,1.2837,1.3041,1.3172,1.3303,1.336,1.3575,1.3664,1.3746,1.3794,1.3763,1.3698,1.3678,1.3688,1.3663,1.3616,1.3938,1.3939,1.3939,1.3011,1.3027,1.3204,1.3283,1.3413,1.3523,1.3727,1.3875,1.3957,1.3956,1.3832,1.3816,1.3711,1.3675,1.3673,1.3633,1.3548,0,0]}]]